Showing default

PERUSAT 1, 41770

Orbit data source: Space-Track

PERUSAT 1, 41770 is a payload satellite owned by MOD Peru (PE) in SSO that was launched on Fri, 16 Sep 2016 UTC via a VEGA launch vehicle from the French Guiana (FRGUI). Payload-class satellites include a variety of spacecraft equipped with specific instruments for various scientific and technological missions. These include communications satellites like Starlink; space stations such as the ISS; scientific satellites like the Hubble; Earth observation satellites from companies like Planet Labs, Umbra, and HawkEye 360; GPS; miniature CubeSats for education and research; and military/defense satellites.

Loading next visibility...
Identifier
41770, 2016-058A
Orbit
SSO
Last TLE update
6 hours ago
Origin
Manufacturer
Airbus/Toulouse
Mission
Operational Defense Imaging
Bus & Motor
ASTROBUS-S, Unknown motor
Mass
430 kg wet, ~400 kg dry
Launch date (UTC)
2016-09-16 (9 years ago)
Launch vehicle
VEGA
Launch site
French Guiana (FRGUI)
Object type
Payload
Rocket body
Debris
Shape & HBR
Hex Cyl + 3 Pan, 4.5 m
Radar Cross Section
3.025 m², Large (>1 m²)

Expand to show TLE details & history

TLE from 6 hours ago
0 PERUSAT 1
1 41770U 16058A   25182.47715992  .00000261  00000-0  65968-4 0  9998
2 41770  98.1877 256.1802 0001444  91.0360 269.1004 14.58555178467971
Epoch: 2025-07-01T11:27Z
TLE epoch observation values (Epoch: 2025-07-01T11:27:06.617Z)
Latitude
-0.00008°
Longitude
164.63059°
Altitude
700.843 km
Speed
7.506 km/s
True Right ascension
17h 04m 43s
True Declination
0° 00' 00"
Sunlit
Object was in full shadow at epoch
Visualization orbit readout
Latitude
-51.16864°
Longitude
175.13256°
Altitude
718.507 km
Speed
7.495 km/s
Apparent Right ascension
17h 36m 46s
Apparent Declination
-45° 41' 17"
Sunlit
Object is in full shadow
Visualization observer readout
Local Sidereal Time
05:27:42
Azimuth
195.305° SSW
Elevation
-83.994°
Doppler factor
1
Orbital elements
Apogee altitude
695.947 km
Perigee altitude
693.904 km
Semi-major axis
7,073.063 km
Eccentricity
0.00014
Inclination
98.1877°
RAAN
256.1802°
Arg. of periapsis
91.036°
True anomaly
Unknown
Mean anomaly
269.1004°
Eccentric anomaly
Unknown
Mean motion
3.64865 °/min
Orbital period
98.67 mins
BSTAR
0.000065968
Loading maneuver chart data...
Loading SW <> Apogee altitude chart data...
Loading historical data...
Loading historical data...
Loading historical data...
Loading historical data...
Loading historical data...
Loading historical data...
Loading historical data...

PERUSAT 1 Visibility forecast

Observer location: undefined°, undefined°

Span
Click to sort rows by Start time (UTC) header in descending order
Start Az.
Max El. time (UTC)
Max El. Az.
Max El.
End time (UTC)
End Az.
7 mins2025-07-01 18:36:02.807Z349.415° N2025-07-01 18:40:02.807Z284.929° WNW26.74°2025-07-01 18:43:02.807Z236.504° WSW
6 mins2025-07-02 04:04:02.807Z115.446° SE2025-07-02 04:07:02.807Z63.826° ENE24.354°2025-07-02 04:10:02.807Z16.968° NNE
6 mins2025-07-02 05:42:02.807Z218.36° SW2025-07-02 05:44:02.807Z255.232° W26.21°2025-07-02 05:48:02.807Z321.615° NNW
8 mins2025-07-02 17:40:02.807Z19.437° NNE2025-07-02 17:44:02.807Z139.97° SSE42.578°2025-07-02 17:48:02.807Z186.151° SSW
|